Flag for Germany Weather past 2 weeks in Sinsheim, Baden-Württemberg, Germany

Now
57 °F

Passing clouds.


Feels Like: 56 °F
Forecast: 37 / 61 °F
Wind: 7 mph from East

Location: Baden Wurttemberg - Neuostheim

Current Time: Apr 18, 2015 at 7:18:40 PM

Latest Report: Apr 18, 2015 at 6:50 PM


Visibility: N/A

Pressure: 30.21 "Hg

Humidity: 31%

Dew point: 27 °F

Location of SinsheimLocation

Historic Weather in Sinsheim — Graph

°F

Sinsheim temperature yesterday

Maximum temperature yesterday: 61 °F (at 6:20 PM)
Minimum temperature yesterday: 50 °F (at 5:50 AM)
Average temperature yesterday: 54 °F

Past Weeks' High & Low Weather Summary

 TemperatureHumidityPressure
High79 °F (Apr 15, 4:20 PM)93% (Apr 4, 7:50 AM)30.63 "Hg (Apr 4, 7:50 AM)
Low30 °F (Apr 7, 6:50 AM)19% (Apr 15, 8:20 PM)29.86 "Hg (Apr 16, 5:20 PM)
Average56 °F52%30.24 "Hg
* Reported Apr 3 5:20 PM — Apr 18 5:50 PM, Sinsheim, Weather by CustomWeather, © 2015

Note: Actual official high and low records may vary slightly from our data, if they occured in-between our weather recording intervals... More about our weather records

Advertising

Sinsheim weather history for previous 24 hours

 ConditionsComfort  
Time TempWeatherWind HumidityBarometerVisibility
5:50 PM
Sat, Apr 18
57 °FSunny.6 mph31%30.21 "Hg10 mi
5:20 PM57 °FPassing clouds.10 mph29%30.21 "HgN/A
4:50 PM57 °FPassing clouds.8 mph29%30.21 "HgN/A
4:20 PM57 °FPassing clouds.8 mph29%30.24 "HgN/A
3:50 PM57 °FPassing clouds.9 mph31%30.24 "HgN/A
3:20 PM55 °FPassing clouds.7 mph33%30.24 "HgN/A
2:50 PM55 °FPassing clouds.9 mph33%30.24 "HgN/A
2:20 PM55 °FPassing clouds.8 mph36%30.27 "HgN/A
1:50 PM55 °FPassing clouds.10 mph36%30.27 "HgN/A
1:20 PM55 °FPassing clouds.8 mph36%30.27 "HgN/A
12:50 PM54 °FPassing clouds.8 mph35%30.27 "HgN/A
12:20 PM54 °FPassing clouds.8 mph33%30.27 "HgN/A
11:50 AM54 °FPassing clouds.12 mph38%30.27 "HgN/A
11:20 AM52 °FPassing clouds.10 mph44%30.27 "HgN/A
10:50 AM52 °FPassing clouds.9 mph47%30.27 "HgN/A
10:20 AM50 °FPassing clouds.13 mph50%30.24 "HgN/A
9:50 AM50 °FSunny.10 mph54%30.24 "Hg10 mi
9:20 AM48 °FSunny.8 mph58%30.24 "Hg10 mi
8:50 AM46 °FPassing clouds.8 mph62%30.24 "HgN/A
8:20 AM43 °FPassing clouds.5 mph71%30.24 "HgN/A
7:50 AM41 °FSunny.6 mph70%30.24 "Hg10 mi
8:50 PM
Fri, Apr 17
54 °FPassing clouds.12 mph44%30.07 "HgN/A
8:20 PM54 °FPassing clouds.10 mph44%30.04 "HgN/A
7:50 PM55 °FPassing clouds.10 mph41%30.01 "HgN/A
7:20 PM57 °FPassing clouds.14 mph39%29.98 "HgN/A
Weather by CustomWeather, © 2015

See weather overviewHow to use our weather pages